CCC Bridge Run — Results
Gretna, Louisiana, United States
1st Place
Ian Carr
General Registration
21:53
2nd Place
Jp Botti
General Registration
23:52
3rd Place
Tarak Anada
General Registration
24:24
| # | Bib | Name | Gender | Gender Rank | Age Group | AG Rank | Finish Time | Pace |
|---|---|---|---|---|---|---|---|---|
| 151 | 1581 | Rhonda Aluise | Female | — | F 45-49 | 2 | 34:18 | 8:34 /mi |
| 152 | 191 | Chris Courrege | Male | — | M 50-54 | 9 | 34:21 | 8:35 /mi |
| 153 | 2011 | Jeffrey Vinzant | Male | — | M 55-59 | 6 | 34:23 | 8:36 /mi |
| 154 | 871 | Roy Sturgeon | Male | — | M 45-49 | 13 | 34:27 | 8:37 /mi |
| 155 | 1472 | Anastasia Grieb | Female | — | F 20-24 | 3 | 34:29 | 8:37 /mi |
| 156 | 1535 | Jose Garcia | Male | — | M 35-39 | 22 | 34:31 | 8:38 /mi |
| 157 | 1384 | Andrew Asaro | Male | — | M 25-29 | 9 | 34:37 | 8:39 /mi |
| 158 | 1551 | Megan Paz | Female | — | F 35-39 | 5 | 34:40 | 8:40 /mi |
| 159 | 827 | Chris Savois | Male | — | M 50-54 | 10 | 34:41 | 8:40 /mi |
| 160 | 1081 | Michael Dewenter | Male | — | M 45-49 | 14 | 34:41 | 8:40 /mi |
| 161 | 1372 | Todd Koenig | Male | — | M 40-44 | 18 | 34:41 | 8:40 /mi |
| 162 | 889 | Jefferson Spear | Male | — | M 55-59 | 7 | 34:45 | 8:41 /mi |
| 163 | 828 | Alvaro Castilla | Male | — | M 25-29 | 10 | 34:46 | 8:42 /mi |
| 164 | 719 | Lacy Prescott | Female | — | F 20-24 | 4 | 34:47 | 8:42 /mi |
| 165 | 795 | Alex Prokop | Male | — | — | — | 34:47 | 8:42 /mi |
| 166 | 284 | Christopher Campbell | Male | — | M 25-29 | 11 | 34:47 | 8:42 /mi |
| 167 | 1545 | Evan McDoanld | Male | — | M 45-49 | 15 | 34:48 | 8:42 /mi |
| 168 | 286 | Marc Kovacich | Male | — | M 45-49 | 16 | 34:48 | 8:42 /mi |
| 169 | 946 | Jeffrey Varisco | Male | — | M 35-39 | 23 | 34:48 | 8:42 /mi |
| 170 | 847 | Anonymous Anonymous | Male | — | M 40-44 | 19 | 34:52 | 8:43 /mi |
| 171 | 422 | Alvin Smith | Male | — | M 60-64 | 2 | 34:53 | 8:43 /mi |
| 172 | 2157 | Jesse Whitefield | Male | — | M 30-34 | 26 | 34:53 | 8:43 /mi |
| 173 | 960 | Leann Splitter | Female | — | F 35-39 | 6 | 35:04 | 8:46 /mi |
| 174 | 1335 | Tina Griffith | Female | — | F 40-44 | 1 | 35:07 | 8:47 /mi |
| 175 | 2098 | Brennan Steele | Male | — | M 30-34 | 27 | 35:08 | 8:47 /mi |
| 176 | 2188 | Jacob Crawford | Male | — | M 25-29 | 12 | 35:13 | 8:48 /mi |
| 177 | 922 | Scott Grindstaff | Male | — | M 40-44 | 20 | 35:13 | 8:48 /mi |
| 178 | 846 | Tyrone A Palmer | Male | — | M 50-54 | 11 | 35:17 | 8:49 /mi |
| 179 | 1558 | Rebecca Stith | Female | — | F 25-29 | 5 | 35:17 | 8:49 /mi |
| 180 | 2170 | Joel Lightner | Male | — | M 35-39 | 24 | 35:18 | 8:50 /mi |
| 181 | 2130 | James Defreece | Male | — | M 35-39 | 25 | 35:26 | 8:51 /mi |
| 182 | 2034 | Rob Leclerq | Male | — | M 30-34 | 28 | 35:28 | 8:52 /mi |
| 183 | 986 | Russell Touchet | Male | — | M 60-64 | 3 | 35:30 | 8:52 /mi |
| 184 | 1218 | Gino Estores | Male | — | M 30-34 | 29 | 35:34 | 8:54 /mi |
| 185 | 1462 | Gerard King | Male | — | — | — | 35:35 | 8:54 /mi |
| 186 | 2105 | Roger Paige | Male | — | M 40-44 | 21 | 35:38 | 8:54 /mi |
| 187 | 146 | Elwin Draughon | Male | — | M 55-59 | 8 | 35:38 | 8:55 /mi |
| 188 | 1457 | Katelynn Templet | Female | — | F 20-24 | 5 | 35:43 | 8:56 /mi |
| 189 | 1442 | Aiklen Carter | Male | — | M 35-39 | 26 | 35:44 | 8:56 /mi |
| 190 | 1066 | Damone Coleman | Male | — | M 35-39 | 27 | 35:44 | 8:56 /mi |
| 191 | 1405 | Allen Richard Jr | Male | — | M 45-49 | 17 | 35:46 | 8:57 /mi |
| 192 | 895 | Lemar Simmons | Male | — | M 25-29 | 13 | 35:47 | 8:57 /mi |
| 193 | 939 | Gerard Gianoli | Male | — | M 55-59 | 9 | 35:47 | 8:57 /mi |
| 194 | 26 | Reginald Lampton | Male | — | M 35-39 | 28 | 35:49 | 8:57 /mi |
| 195 | 1607 | Kendrea Smith | Female | — | F 45-49 | 3 | 35:50 | 8:58 /mi |
| 196 | 1317 | Matt Jerdonek | Male | — | M 45-49 | 18 | 35:52 | 8:58 /mi |
| 197 | 2089 | Curtis Clements | Male | — | M 35-39 | 29 | 35:54 | 8:59 /mi |
| 198 | 2032 | Rebecca Csomos | Female | — | F 35-39 | 7 | 35:55 | 8:59 /mi |
| 199 | 1216 | Alek Krautmann | Male | — | M 25-29 | 14 | 35:55 | 8:59 /mi |
| 200 | 1757 | Nestor Raul Anzola | Male | — | M 50-54 | 12 | 35:56 | 8:59 /mi |
Showing 151–200 of 1346 results